Theta_e
330 329 329 328 328 327 326 325 324 322 321 321 320 319 318 317 318 316 314 312 311 309 309 309 310 310 311 309 310 310 310 309 309 308 307 307 305 305 306 305 304 304
330 330 329 329 327 327 326 326 324 323 322 321 321 320 317 317 315 313 312 312 311 310 309 309 309 309 309 308 308 308 307 307 307 309 306 306 305 305 304 304 303 303
331 330 329 328 327 326 325 325 325 323 322 322 320 317 317 316 314 312 311 310 310 309 309 309 308 308 307 307 306 306 305 305 306 306 306 304 304 304 303 303 303 303
331 331 329 328 327 326 326 325 324 323 322 320 318 318 317 316 313 312 312 314 309 308 308 308 307 307 307 307 306 305 305 305 305 305 305 305 305 304 304 303 303 302
331 331 331 329 328 327 326 325 323 322 320 319 318 317 316 313 312 311 309 308 308 307 307 306 306 307 307 306 305 304 304 304 304 304 302 302 303 304 304 303 302 301
331 332 331 330 328 327 325 324 322 321 319 317 317 316 314 313 311 309 308 308 307 307 306 306 306 306 306 305 304 304 304 303 303 303 303 303 303 304 305 303 302 301
330 330 329 329 328 326 324 322 321 320 319 318 317 314 313 311 310 308 308 308 307 307 306 306 305 305 305 304 304 304 303 303 303 303 302 302 303 302 302 301 301 300
330 329 329 328 326 324 322 321 321 320 318 317 314 314 313 311 309 309 307 307 306 306 305 306 305 305 305 304 304 303 303 304 303 302 301 301 300 300 301 303 300 299
330 329 328 326 324 322 321 321 320 318 317 315 314 313 312 311 309 308 307 306 306 305 305 305 305 305 304 304 303 302 302 302 302 301 301 300 300 300 300 300 300 300
329 328 326 324 323 322 321 320 319 317 317 315 314 313 311 310 309 308 306 305 305 305 304 304 304 305 304 303 303 302 302 301 301 301 301 300 300 300 301 301 300 299
328 326 324 323 322 321 319 319 317 317 316 315 313 311 310 309 308 307 305 305 305 304 304 304 305 304 303 302 302 302 302 302 301 301 300 300 301 301 305 300 301 299
326 324 323 322 321 320 319 318 317 317 316 314 313 311 309 308 307 306 305 304 304 304 304 304 304 303 303 302 302 302 301 301 301 301 301 301 301 302 301 301 300 300
325 323 323 322 321 321 319 318 317 316 315 313 313 311 308 306 306 305 305 304 304 304 304 304 304 303 302 302 302 301 301 301 301 300 300 301 301 301 301 301 301 300
325 323 322 322 322 321 319 318 317 316 314 313 312 310 307 306 305 304 304 304 303 304 304 304 303 302 302 302 301 301 301 301 300 300 300 300 300 301 301 300 297 296
324 323 322 322 322 320 319 318 317 316 314 313 311 309 308 306 305 305 304 303 303 304 304 304 303 303 303 301 301 301 301 300 300 301 300 300 300 301 299 297 296 295
323 322 322 322 321 319 319 318 317 316 314 312 311 309 307 306 305 305 304 303 303 303 303 303 303 304 307 305 304 301 300 301 301 300 300 300 300 299 297 296 296 296
323 322 322 321 320 319 319 318 317 315 313 312 310 308 307 306 305 304 303 303 304 303 302 303 304 305 301 297 298 301 302 300 300 300 300 300 300 299 295 294 294 295
322 321 321 320 320 319 318 318 316 314 312 311 309 308 307 306 304 304 303 303 304 303 302 303 303 303 296 297 297 298 302 301 300 300 300 300 300 298 296 294 292 293
322 321 320 320 320 319 318 317 314 313 311 310 309 308 307 305 305 304 303 303 304 303 302 302 299 296 296 297 296 297 298 301 300 300 300 299 299 297 294 292 292 293
322 320 319 319 320 319 318 316 313 312 311 311 309 308 307 305 305 304 304 303 303 302 300 299 298 297 295 296 296 296 296 299 301 300 300 299 299 297 294 292 292 292
321 320 319 319 319 319 317 315 313 311 311 310 309 308 306 305 305 304 304 304 303 301 299 299 300 295 294 294 294 295 297 300 301 302 301 299 299 299 296 295 295 297
321 320 319 319 319 318 316 314 313 311 310 309 308 306 306 306 305 305 304 304 302 300 299 298 297 294 294 294 294 295 297 302 302 300 300 299 299 299 298 299 299 298
321 320 319 318 318 317 315 314 313 310 310 309 307 306 306 305 305 305 305 304 302 300 299 298 297 295 295 294 295 296 298 301 302 301 300 299 299 299 299 299 300 299
321 320 318 318 317 317 315 314 313 310 310 309 307 306 305 305 306 306 306 305 301 300 299 298 298 297 294 294 295 295 299 299 299 299 298 299 299 299 300 299 300 308
321 320 319 318 317 317 316 313 311 310 309 309 308 307 306 306 306 306 305 304 302 301 304 300 299 298 294 294 295 294 298 299 299 299 298 297 299 298 298 299 297 306
321 318 318 317 317 317 315 313 310 309 308 308 307 307 307 306 305 305 304 303 302 301 301 299 299 298 296 293 295 294 296 300 298 297 298 297 297 297 298 295 297 297
Wind_Speed
10 9 10 9 8 8 8 9 8 8 7 8 8 7 6 7 5 6 7 6 6 6 5 5 5 5 6 6 6 6 6 7 6 5 7 7 6 7 7 7 7 7
11 10 9 8 7 7 7 9 9 9 9 9 7 7 7 7 7 8 7 6 5 5 5 6 6 6 7 6 6 7 7 7 7 4 7 7 6 7 7 7 7 6
12 11 11 10 10 10 10 9 8 8 9 8 8 8 7 8 8 7 7 7 6 6 6 5 6 7 7 7 6 7 7 7 7 6 7 6 6 7 6 7 7 6
12 12 10 10 10 10 9 9 7 8 8 8 9 9 9 7 8 8 7 7 7 6 5 6 7 6 6 6 6 6 6 6 6 6 6 5 5 7 7 7 7 6
12 11 10 10 10 10 9 8 8 9 9 9 9 9 9 9 8 8 7 7 6 5 6 7 6 6 6 6 6 7 6 7 6 6 7 7 6 7 6 7 6 6
10 10 10 11 11 10 9 8 9 10 10 10 9 8 9 9 8 8 8 7 6 6 6 6 7 6 6 6 7 6 6 7 6 7 7 6 6 5 5 5 5 5
11 10 10 10 11 9 9 9 9 9 9 8 8 9 9 9 9 9 8 7 6 6 7 7 7 7 6 6 6 6 6 7 6 6 7 6 6 6 5 6 5 5
11 9 10 10 11 9 10 9 9 9 8 8 9 9 9 10 10 8 7 7 6 6 7 6 7 7 6 6 6 7 6 5 6 7 6 6 5 5 5 5 5 6
11 10 10 11 12 9 10 10 9 9 8 9 8 8 8 9 9 8 8 7 7 7 6 6 7 6 5 6 6 7 7 6 6 7 6 6 6 6 7 6 6 4
12 11 12 12 12 10 11 10 9 9 8 9 8 8 9 8 9 9 8 7 7 7 6 6 6 6 6 7 7 6 7 8 7 6 6 6 7 7 6 6 5 5
12 12 12 12 11 9 10 10 10 9 7 8 8 8 9 8 8 8 7 8 8 8 7 7 6 7 8 7 5 5 7 8 7 6 6 6 6 6 7 6 5 5
12 12 13 13 11 10 11 10 10 9 8 7 8 9 8 8 9 7 7 8 8 7 7 7 7 7 8 7 6 6 7 7 7 6 6 6 6 6 6 5 5 5
13 13 12 12 11 10 10 10 10 9 8 9 8 9 8 8 8 7 7 8 8 7 8 8 8 7 7 7 7 7 7 7 6 7 6 6 6 6 5 5 5 5
13 12 12 11 10 10 11 10 9 8 8 9 9 9 9 8 8 8 7 7 7 8 8 8 7 7 7 7 7 7 7 6 7 7 7 6 5 5 5 6 7 6
12 11 10 11 11 11 11 10 10 8 9 9 8 8 8 8 7 8 8 7 7 8 8 7 7 7 6 7 7 7 7 8 8 7 7 7 6 6 6 7 6 5
12 11 11 11 11 11 11 10 10 8 10 10 9 9 8 8 7 8 8 8 8 9 8 7 6 5 8 12 9 8 7 7 7 7 7 7 7 7 6 6 6 5
12 12 12 12 12 11 10 11 10 8 10 10 9 9 8 8 8 8 7 7 9 8 8 6 6 6 12 13 13 12 8 7 7 7 7 7 6 7 7 6 5 5
12 13 13 12 12 12 11 11 10 10 10 10 9 9 8 7 8 8 7 7 7 8 7 6 5 9 13 13 12 12 9 6 6 6 6 6 6 7 7 7 6 6
13 13 13 12 12 12 11 10 10 11 11 10 10 9 7 8 8 8 7 7 8 8 7 6 5 10 13 13 12 11 11 8 5 5 6 5 5 7 7 7 6 6
13 14 13 13 12 12 11 11 11 12 10 9 9 8 8 8 7 8 7 7 8 8 8 7 8 10 14 13 11 12 12 9 5 6 5 6 6 7 7 7 8 7
14 13 13 13 13 13 12 12 11 10 10 9 9 9 8 9 8 7 7 7 8 9 9 9 9 13 14 14 13 11 9 7 5 5 6 5 6 7 8 8 8 7
14 13 13 13 13 13 13 12 11 12 11 9 8 7 6 6 6 7 8 8 9 10 10 9 8 13 15 13 14 12 7 2 3 5 5 6 6 7 7 8 8 8
14 14 13 13 13 13 13 13 11 11 10 9 9 8 8 8 7 6 7 9 10 11 12 10 9 13 17 16 16 17 11 8 7 7 6 6 6 6 7 6 6 6
14 15 14 14 14 13 13 12 9 10 10 10 11 10 9 8 8 7 8 10 12 12 12 12 10 13 16 14 15 15 11 7 5 7 6 6 6 5 6 5 5 9
12 13 13 12 10 11 10 12 11 11 10 9 10 9 8 7 8 8 7 8 10 12 14 14 12 12 14 13 16 15 10 5 6 7 7 6 6 6 5 5 4 6
11 10 11 13 14 11 9 11 9 10 10 10 9 9 8 7 8 8 8 7 9 11 11 12 12 9 11 13 14 13 12 7 5 7 7 6 5 7 6 3 5 4
Wind_Direction
153 156 156 159 165 166 162 161 156 155 155 155 158 168 145 150 137 117 122 122 121 120 122 122 118 115 110 104 104 101 100 101 93 91 94 94 91 94 89 83 76 81
157 158 158 158 158 159 159 159 158 158 160 159 159 149 145 129 122 125 126 122 121 125 125 121 117 115 115 111 109 106 104 105 102 101 97 91 95 92 92 90 88 81
159 161 162 162 163 162 161 161 158 157 156 155 141 140 137 128 130 128 128 129 130 131 128 123 115 115 116 117 115 113 114 111 110 107 99 100 96 95 94 88 82 85
163 164 162 160 160 161 162 160 155 150 144 140 144 144 137 137 132 132 134 135 137 140 134 124 125 122 121 121 116 112 116 114 119 111 102 91 88 92 91 91 90 83
163 162 160 160 161 160 160 155 151 150 146 143 140 139 134 135 134 132 134 139 140 141 135 130 125 125 122 118 119 117 116 113 107 104 103 102 97 96 98 97 96 94
163 161 163 162 162 160 160 151 152 148 144 144 145 138 136 135 133 134 139 138 140 139 133 130 128 126 123 123 120 122 121 116 115 110 108 107 106 102 105 102 99 99
165 163 164 158 156 156 151 147 150 147 147 146 136 139 137 133 133 136 139 140 140 138 135 134 130 130 129 128 125 123 121 121 119 114 113 113 110 103 103 103 101 96
163 163 159 155 153 148 147 148 146 144 145 139 138 141 137 137 137 138 141 142 139 140 137 133 134 134 136 130 130 128 127 123 120 120 117 116 114 114 104 103 103 95
162 162 157 154 151 148 148 148 141 140 143 139 140 140 137 139 140 141 146 144 141 143 139 138 140 139 136 133 136 137 132 126 127 126 125 122 118 117 117 117 108 108
163 161 156 154 154 153 147 146 141 140 141 142 144 138 141 139 141 146 147 148 146 146 145 144 140 135 135 139 144 140 132 132 132 130 127 126 126 127 125 122 127 119
163 161 157 157 155 153 145 143 141 141 144 145 142 138 142 141 145 148 149 149 151 152 150 148 145 141 139 142 142 133 133 134 136 135 133 136 136 135 133 135 138 142
162 160 160 157 154 150 147 144 143 147 147 148 148 142 140 146 149 155 153 152 152 153 149 149 144 143 145 148 144 136 134 136 138 136 140 139 138 135 138 142 144 144
162 162 160 158 155 150 149 147 147 152 149 153 153 143 142 150 154 151 154 152 154 149 150 150 148 148 149 148 142 140 140 140 133 132 132 130 130 132 128 124 109 96
161 159 157 157 151 147 149 148 148 151 150 152 149 144 147 156 155 153 155 152 153 151 152 150 149 150 149 146 145 145 142 137 137 136 132 127 124 122 117 102 103 103
157 156 155 152 149 146 148 149 153 153 149 153 148 141 149 154 153 153 154 155 153 152 153 153 151 155 153 150 146 144 140 139 141 139 135 133 129 117 104 107 104 109
154 154 155 152 151 152 152 152 159 155 151 154 149 146 151 153 155 156 158 158 156 153 153 151 153 153 156 150 147 146 144 141 139 137 138 138 134 119 115 114 120 122
155 156 155 155 154 155 156 158 163 156 155 153 149 151 156 158 158 160 160 159 154 153 151 151 150 152 147 146 146 144 141 141 142 141 141 142 138 132 132 128 123 122
157 156 159 158 157 160 162 164 160 158 158 152 149 156 161 158 160 166 157 154 148 145 147 141 140 141 143 146 147 143 138 138 138 142 146 151 143 136 137 135 136 132
157 160 162 162 163 162 164 162 159 161 158 150 156 162 153 163 166 161 156 151 144 141 129 122 119 142 146 148 147 143 138 136 140 142 149 159 143 139 142 143 145 150
160 161 165 167 165 165 167 163 161 165 161 150 150 155 157 163 163 157 150 148 141 130 124 125 129 146 141 135 136 142 144 143 153 153 157 160 151 150 152 153 159 166
162 164 165 167 168 170 169 167 163 161 157 150 155 162 162 166 162 151 150 142 132 128 131 137 148 150 133 132 129 129 134 147 159 158 159 166 161 154 160 163 169 173
162 165 167 169 172 170 169 169 165 165 159 151 148 148 150 145 148 144 147 143 136 136 134 141 148 155 134 144 141 126 104 63 157 169 169 172 164 162 167 170 172 176
165 168 170 172 173 169 169 171 163 162 153 146 146 152 155 157 157 153 148 140 142 143 143 149 158 168 161 166 149 147 155 166 181 180 170 170 166 166 170 169 165 165
171 169 170 173 175 172 168 170 155 160 158 157 156 157 158 160 152 151 153 147 151 154 150 157 169 185 170 164 154 159 172 174 163 162 166 164 161 156 152 162 176 177
169 168 167 161 160 174 168 166 159 162 157 154 149 147 150 149 151 154 155 147 154 151 159 160 167 184 177 174 163 174 179 169 155 159 160 171 164 171 167 168 194 201
172 149 146 171 178 167 161 164 153 149 152 145 148 147 147 147 149 150 141 144 155 157 161 159 166 178 182 187 174 183 184 165 155 159 168 174 173 170 181 191 191 170